Terminal Aerodrome Forecast
Issued by NWS

Home | Current Version | Previous Version | Text Only | Print | Product List | Glossary Off
Versions: 1 2 3 4 5 6 7 8 9 10 11 12 13 14 15 16 17 18 19 20 21

000
FTUS42 KMHX 261400 AAB
TAFISO
TAF AMD
KISO 261448Z 2615/2712 VRB03KT P6SM BKN025
     FM261700 27005KT P6SM BKN030
     FM262300 18005KT P6SM SCT040
      AMD LTD TO CLD VIS AND WIND=

USA.gov is the U.S. government's official web portal to all federal, state and local government web resources and services.